SB KEPS @ AMSAT $ORB08157.N 2Line Orbital Elements 08157.AMSAT
HR AMSAT ORBITAL ELEMENTS FOR AMATEUR SATELLITES IN NASA FORMAT FROM WA5QGD FORT WORTH,TX June 5, 2008 Send Subscribe/unsubscribe to KEPS at http://www.amsat.org/mailman/listinfo/keps BID: ORB08157.N
DECODE 2-LINE ELSETS WITH THE FOLLOWING KEY: 1 AAAAAU 00 0 0 BBBBB.BBBBBBBB .CCCCCCCC 00000-0 00000-0 0 DDDZ 2 AAAAA EEE.EEEE FFF.FFFF GGGGGGG HHH.HHHH III.IIII JJ.JJJJJJJJKKKKKZ KEY: A-CATALOGNUM B-EPOCHTIME C-DECAY D-ELSETNUM E-INCLINATION F-RAAN G-ECCENTRICITY H-ARGPERIGEE I-MNANOM J-MNMOTION K-ORBITNUM Z-CHECKSUM
TO ALL RADIO AMATEURS BT
AO-07 1 07530U 74089B 08156.92356846 -.00000027 00000-0 10000-3 0 01958 2 07530 101.4674 188.8315 0011468 285.8347 074.1451 12.53573663535445 AO-10 1 14129U 83058B 08156.12216747 -.00000191 00000-0 10000-3 0 05140 2 14129 025.9551 212.0985 5988474 129.1879 301.2481 02.05870739187832 UO-11 1 14781U 84021B 08157.28372152 .00000288 00000-0 45646-4 0 6878 2 14781 098.1534 191.1389 0010147 109.8370 250.3932 14.79647410302097 RS-15 1 23439U 94085A 08156.95169828 -.00000039 00000-0 10000-3 0 01275 2 23439 064.8147 154.8318 0147686 125.2544 236.2301 11.27552075553586 FO-29 1 24278U 96046B 08156.84499839 -.00000064 00000-0 -26640-4 0 07927 2 24278 098.5871 074.7478 0349754 247.4867 108.8900 13.52937159582725 SO-33 1 25509U 98061B 08157.65620749 -.00000013 00000-0 -16452-4 0 2110 2 25509 031.4348 021.5531 0355410 286.3100 069.8743 14.28214887501964 AO-40 1 26609U 00072B 08156.86734391 -.00000113 00000-0 10000-3 0 703 2 26609 007.5812 079.2760 7915103 088.1125 350.1165 01.25583596 34888 VO-52 1 28650U 05017B 08157.65401829 .00000061 00000-0 14429-4 0 9485 2 28650 097.7904 224.5807 0027327 175.8229 184.3204 14.81469974166897 PO-63 1 29712U 07001D 08157.73201825 .00000537 00000-0 77432-4 0 5064 2 29712 097.8751 216.1330 0015504 060.6242 299.6507 14.80172730 75778 AO-16 1 20439U 90005D 08157.54016542 .00000004 00000-0 16840-4 0 3373 2 20439 098.2287 138.1982 0010172 208.1411 151.9234 14.31795181959251 LO-19 1 20442U 90005G 08156.61120838 .00000022 00000-0 23268-4 0 02650 2 20442 098.1990 145.8924 0011306 208.3966 151.6601 14.32033510959272 AO-27 1 22825U 93061C 08157.50946555 -.00000096 00000-0 -21275-4 0 9851 2 22825 098.3826 117.9698 0007717 300.0718 059.9703 14.29239776766102 IO-26 1 22826U 93061D 08156.44561598 -.00000010 00000-0 12571-4 0 06923 2 22826 098.3758 117.8609 0008170 298.9972 061.0393 14.29488833766041 PO-28 1 22829U 93061G 08157.48778040 -.00000050 00000-0 -32863-5 0 9614 2 22829 098.3635 119.9700 0008794 266.1328 093.8864 14.30190105766452 GO-32 1 25397U 98043D 08156.66619993 -.00000148 00000-0 -47161-4 0 06174 2 25397 098.3637 192.4467 0000441 312.3983 047.7148 14.23143451514431 NO-44 1 26931U 01043C 08157.74160729 -.00000089 00000-0 -25391-5 0 8955 2 26931 067.0525 314.1412 0006595 275.7117 084.3261 14.29523786348779 SO-50 1 27607U 02058C 08157.31595550 -.00000046 00000-0 15100-4 0 6204 2 27607 064.5590 089.6912 0085433 281.6998 077.4526 14.71359839293223 CO-55 1 27844U 03031E 08157.60395762 .00000050 00000-0 43310-4 0 3210 2 27844 098.7145 166.0316 0010312 144.3716 215.8147 14.20582458255792 CO-57 1 27848U 03031J 08157.60048604 .00000045 00000-0 41329-4 0 2721 2 27848 098.7157 165.1267 0010035 147.8982 212.2798 14.20391133255767 AO-51 1 28375U 04025K 08156.61614073 .00000020 00000-0 18745-4 0 01177 2 28375 098.0712 181.8929 0083113 190.5535 169.3917 14.40609685206597 CO-56 1 28941U 06005C 08156.79653148 .00024361 25232-5 18075-3 0 01135 2 28941 098.1067 265.8048 0167983 086.4001 275.6415 15.56771267128113 CP4 1 31122U 07012F 08156.64728682 .00000551 00000-0 13192-3 0 3547 2 31122 098.0436 222.7037 0085350 008.7364 351.5283 14.55130622 60252 CP3 1 31128U 07012M 08156.65512114 -.00000047 00000-0 00000-0 0 03491 2 31128 098.0393 220.6217 0103247 014.3950 346.0142 14.51949796060111 NOAA-10 1 16969U 86073A 08156.60686956 -.00000089 00000-0 -18181-4 0 01489 2 16969 098.7220 178.6017 0011646 215.0144 145.0274 14.27360504129643 NOAA-11 1 19531U 88089A 08156.65068812 .00000194 00000-0 12277-3 0 01884 2 19531 098.7977 246.1490 0012514 103.5464 256.7116 14.14872796016138 NOAA-12 1 21263U 91032A 08156.63813286 -.00000101 00000-0 -23801-4 0 07020 2 21263 098.7644 158.5909 0012805 157.4712 202.7022 14.25534055886601 MET-3/5 1 21655U 91056A 08157.79780209 .00000051 00000-0 10000-3 0 4415 2 21655 082.5514 112.4292 0014997 044.1024 316.1291 13.17015724808080 MET-2/21 1 22782U 93055A 08157.42208472 -.00000057 00000-0 -65012-4 0 1605 2 22782 082.5461 120.9118 0021732 327.1229 032.8577 13.83627802745505 OKEAN-4 1 23317U 94066A 08156.70621933 .00000085 00000-0 74987-5 0 06060 2 23317 082.5383 326.7151 0022528 163.7915 196.3997 14.82614896736439 NOAA-14 1 23455U 94089A 08156.80866266 .00000116 00000-0 85279-4 0 01705 2 23455 098.9472 229.0436 0009637 174.1749 185.9516 14.13743774692603 SICH-1 1 23657U 95046A 08156.72104670 .00000237 00000-0 26961-4 0 04045 2 23657 082.5272 107.6856 0024331 156.6573 203.5749 14.81583040688376 NOAA-15 1 25338U 98030A 08156.64589956 .00000191 00000-0 10044-3 0 04924 2 25338 098.5522 148.8234 0011846 079.3468 280.9028 14.24705856523013 RESURS 1 25394U 98043A 08157.79757130 -.00000005 00000-0 15639-4 0 9430 2 25394 098.3891 202.2759 0000580 207.6686 152.4457 14.24160909514822 FENGYUN1 1 25730U 99025A 08157.82703973 .00000002 00000-0 26097-4 0 4537 2 25730 098.7235 133.9994 0019011 200.2121 159.8297 14.07686746467367 OKEAN-0 1 25860U 99039A 08157.57253979 .00000045 00000-0 14124-4 0 3842 2 25860 097.7489 148.6343 0001116 036.5769 323.5518 14.73524047477687 NOAA-16 1 26536U 00055A 08156.66913288 .00000264 00000-0 16831-3 0 09618 2 26536 099.1548 145.5705 0009495 260.6298 099.3785 14.12484124397008 NOAA-17 1 27453U 02032A 08156.82615699 -.00000015 00000-0 12012-4 0 09542 2 27453 098.5349 221.8097 0012581 140.6688 219.5389 14.23977822309048 NOAA-18 1 28654U 05018A 08156.85756600 -.00000229 00000-0 -10257-3 0 04556 2 28654 098.8674 097.9398 0014421 353.3556 006.7418 14.11166439156730 HUBBLE 1 20580U 90037B 08157.76946245 .00000275 00000-0 83645-5 0 1513 2 20580 028.4684 037.7000 0003854 258.7276 101.2876 15.00383659793265 PO-34 1 25520U 98064B 08156.63270833 .00000404 00000-0 10092-4 0 00167 2 25520 028.4599 262.8316 0005665 149.6295 210.4629 15.17198198531259 ISS 1 25544U 98067A 08157.76236047 -.00000915 00000-0 -15271-5 0 6092 2 25544 051.6386 075.2833 0005530 301.8321 149.6097 15.76721294546724 CO-58 1 28895U 05043F 08156.71305548 .00000035 00000-0 16867-4 0 370 2 28895 098.1006 051.0066 0018991 088.1849 272.1543 14.59672881138661 NCUBE2 1 28897U 05043H 08156.67904078 .00000098 00000-0 29980-4 0 05699 2 28897 098.0987 050.9042 0018358 088.9313 271.3987 14.59843667130941 FCAL 1 29667U 06055J 08146.34060426 .11864717 12752-4 73624-4 0 9790 2 29667 051.6107 065.3702 0009039 260.8350 099.5042 16.53464210 82911 FALCON 1 30776U 07006E 08156.55454858 .00000337 00000-0 27608-4 0 03387 2 30776 035.4342 230.1094 0001758 293.1598 066.8933 15.02999083068244 MAST 1 31126U 07012K 08156.71178227 .00000089 00000-0 30885-4 0 03436 2 31126 098.0391 221.6421 0095180 011.2900 349.0417 14.53426548060207 CAPE1 1 31130U 07012P 08157.75264017 -.00000099 00000-0 -11859-4 0 3230 2 31130 098.0404 221.6786 0102982 011.0458 349.2965 14.51966185 60064 CUTE1-7 1 32785U 08021C 08157.70410767 .00000062 00000-0 14755-4 0 680 2 32785 097.9934 217.6509 0014940 169.1688 190.9839 14.81363619 5708 COMPASS 1 32787U 08021E 08156.68969111 .00000254 00000-0 39283-4 0 00596 2 32787 097.9890 216.6180 0015835 174.1279 186.0105 14.81415352005558 AAUSAT2 1 32788U 08021F 08156.14666023 .00000411 00000-0 59226-4 0 00723 2 32788 097.9910 216.0845 0015563 174.7141 185.4263 14.81524330005472 DO-64 1 32789U 08021G 08156.69033264 .00000478 00000-0 67869-4 0 00689 2 32789 097.9909 216.6323 0015805 173.2246 186.9164 14.81398346005558 SEEDS 1 32791U 08021J 08157.70645534 .00000015 00000-0 88083-5 0 560 2 32791 097.9932 217.6392 0016110 168.2632 191.8950 14.81275263 5670 CANX-2 1 32797U 08021L 08156.69101283 .00000225 00000-0 35594-4 0 00382 2 32797 097.9927 216.6372 0015700 171.8940 188.2538 14.81359628004234 /EX
participants (1)
-
Ray Hoad